Погода в Страуде

Великобритания     51°44′45″N   2°13′46″W
темп.,
°C
ветер,
м/с
пор.,
м/с
влажн.,
%
обл.,
%
осадки,
мм/ч
давл.,
гПа
погр.,
м
7 марта, вс
вс700:00−1всв118344 0.0 103121
03:00−2ссз11850 0.0 103021
06:00−2с11840 0.0 102921
09:00+2сз11640 0.0 1029242
12:00+5ссз22570 0.0 1028936
15:00+7ссз23550 0.0 10261157
18:00+2сз11790 0.0 102622
21:000зсз11860 0.0 102622
8 марта, пн
пн800:00−1ссз11880 0.0 102621
03:00−1сз11910 0.0 102421
06:00−1з11910 0.0 102521
09:00+3зюз117650 0.0 1025144
12:00+7з226475 0.0 1025521
15:00+9зюз326480 0.0 1023719
18:00+3юз238742 0.0 102326
21:00+1юз23910 0.0 102327
9 марта, вт
вт900:000ююз12920 0.0 102322
03:000юз23950 0.0 102239
06:000юз33950 0.0 102260
09:00+4юз468451 0.0 1021373
12:00+7юз687157 0.0 1020693
15:00+8ююз6976100 0.0 1018933
18:00+5ю51389100 0.0 1016574
21:00+5ююз71689100 0.0 1013840
10 марта, ср
ср1000:00+6ююз91893100 1.3 1009899
03:00+7ююз101994100 4.1 1005989
06:00+9юз91695100 6.8 1004759
09:00+9зюз5993100 0.3 1004596
12:00+7ююз4896100 2.5 1003402
15:00+8ююз4795100 0.4 1001372
18:00+10юз81797100 1.5 998819
21:00+11юз102092100 0.3 9961074
11 марта, чт
чт1100:00+11юз142585100 1.4 9931692
03:00+7юз15277995 0.3 9921929
06:00+6зюз15257998 0.5 9931789
09:00+7зюз13227090 0.1 9961936
12:00+8зюз14217061 0.7 9972121
15:00+7зюз14216999 0.9 9972141
18:00+6зюз11216680 1.0 9971733
21:00+5зюз12226718 0.0 9981704